Weather History for KBVE - April, 2013

Change the Weather History Date:

Wednesday, April 24, 2013

  Actual Average Record
Temperature  
Mean Temperature 70 °F -  
Max Temperature 75 °F - - ()
Min Temperature 66 °F - - ()
Cooling Degree Days 6    
Growing Degree Days 20 (Base 50)    
Moisture  
Dew Point 68 °F    
Average Humidity 92    
Maximum Humidity 100    
Minimum Humidity 79    
Precipitation  
Precipitation 0.49 in - - ()
Sea Level Pressure  
Sea Level Pressure 30.07 in    
Wind  
Wind Speed 8 mph (SE)    
Max Wind Speed 20 mph    
Max Gust Speed 25 mph    
Visibility 7 miles    
Events Rain    
T = Trace of Precipitation, MM = Missing Value Source: NWS Daily Summary

Daily Weather History Graph

Daily Weather History Graph

Search for Another Location

Airport or City:

Trip Planner

Search our weather history database for the weather conditions in past years. The results will help you decide how hot, cold, wet, or windy it might be!

Date:

Astronomy

Apr. 24, 2013 Rise Set
Actual Time 6:21 AM CDT 7:29 PM CDT
Civil Twilight 5:57 AM CDT 7:54 PM CDT
Nautical Twilight 5:27 AM CDT 8:24 PM CDT
Astronomical Twilight 4:57 AM CDT 8:54 PM CDT
Moon 6:35 PM CDT (4/24) 5:20 AM CDT (4/24)
Length of Visible Light 13h 57m
Length of Day
13h 07m
Waxing Gibbous, 98% of the Moon is Illuminated
Apr 24
Waxing Gibbous
Apr 25
Full
May 2
Last Quarter
May 9
New
May 17
First Quarter

Hourly Weather History & Observations

Time (CDT) Temp. Dew Point Humidity Pressure Visibility Wind Dir Wind Speed Gust Speed Precip Events Conditions
12:51 AM 69.1 °F 66.9 °F 93% 30.04 in 7.0 mi ESE 6.9 mph - N/A   Mostly Cloudy
12:58 AM 69.8 °F 66.2 °F 88% 30.04 in 7.0 mi ESE 6.9 mph - N/A   Scattered Clouds
1:41 AM 69.8 °F 66.2 °F 88% 30.03 in 7.0 mi ESE 6.9 mph - N/A   Mostly Cloudy
1:51 AM 69.1 °F 68.0 °F 96% 30.03 in 7.0 mi SE 6.9 mph - N/A   Mostly Cloudy
2:32 AM 69.8 °F 66.2 °F 88% 30.01 in 7.0 mi ESE 5.8 mph - N/A   Mostly Cloudy
2:51 AM 69.1 °F 66.9 °F 93% 30.01 in 6.0 mi ESE 4.6 mph - N/A   Mostly Cloudy
3:51 AM 69.1 °F 68.0 °F 96% 30.04 in 7.0 mi ESE 3.5 mph - N/A   Overcast
4:51 AM 69.1 °F 68.0 °F 96% 30.05 in 7.0 mi Calm Calm - N/A   Overcast
5:02 AM 69.8 °F 68.0 °F 94% 30.06 in 7.0 mi ESE 3.5 mph - N/A   Overcast
5:27 AM 68.0 °F 66.2 °F 94% 30.06 in 6.0 mi Calm Calm - N/A   Mostly Cloudy
5:51 AM 68.0 °F 66.9 °F 96% 30.07 in 6.0 mi East 5.8 mph - N/A   Scattered Clouds
6:51 AM 68.0 °F 66.9 °F 96% 30.06 in 5.0 mi ESE 8.1 mph - N/A   Clear
7:51 AM 71.1 °F 69.1 °F 93% 30.07 in 7.0 mi SE 11.5 mph - N/A   Clear
8:51 AM 73.0 °F 69.1 °F 87% 30.08 in 8.0 mi SE 11.5 mph - N/A   Scattered Clouds
9:51 AM 75.0 °F 69.1 °F 82% 30.05 in 9.0 mi SE 17.3 mph - N/A   Clear
10:51 AM 75.0 °F 68.0 °F 79% 30.07 in 10.0 mi SSE 17.3 mph 24.2 mph N/A   Clear
11:51 AM 73.9 °F 69.1 °F 85% 30.09 in 9.0 mi SSE 10.4 mph - N/A   Overcast
12:51 PM 71.1 °F 68.0 °F 90% 30.14 in 5.0 mi Calm Calm - 0.01 in Rain Light Rain
1:51 PM 70.0 °F 69.1 °F 97% 30.07 in 4.0 mi ESE 13.8 mph 18.4 mph 0.10 in Rain Light Rain
2:24 PM 69.8 °F 69.8 °F 100% 30.08 in 2.5 mi ESE 12.7 mph - 0.08 in Rain Rain
2:32 PM 69.8 °F 69.8 °F 100% 30.08 in 3.0 mi ESE 10.4 mph - 0.08 in Rain Light Rain
2:51 PM 70.0 °F 69.1 °F 97% 30.09 in 5.0 mi ESE 10.4 mph - 0.09 in Rain Light Rain
3:07 PM 69.8 °F 69.8 °F 100% 30.10 in 1.8 mi ESE 9.2 mph - 0.07 in Rain Heavy Rain
3:31 PM 69.8 °F 68.0 °F 94% 30.06 in 3.0 mi SE 15.0 mph 21.9 mph 0.19 in Rain Rain
3:51 PM 70.0 °F 68.0 °F 93% 30.06 in 4.0 mi SSE 19.6 mph 25.3 mph 0.21 in Rain Light Rain
4:04 PM 69.8 °F 69.8 °F 100% 30.07 in 2.0 mi SSE 15.0 mph 23.0 mph 0.05 in Rain Rain
4:14 PM 69.8 °F 68.0 °F 94% 30.06 in 4.0 mi South 15.0 mph - 0.07 in Rain Light Rain
4:51 PM 70.0 °F 66.9 °F 90% 30.04 in 8.0 mi SSE 17.3 mph 25.3 mph 0.08 in Rain Light Rain
5:51 PM 72.0 °F 66.9 °F 84% 30.05 in 10.0 mi South 13.8 mph - 0.00 in   Clear
6:51 PM 72.0 °F 66.9 °F 84% 30.06 in 10.0 mi South 9.2 mph - N/A   Clear
7:51 PM 72.0 °F 66.9 °F 84% 30.08 in 10.0 mi South 8.1 mph - N/A   Partly Cloudy
8:51 PM 72.0 °F 66.9 °F 84% 30.11 in 10.0 mi South 6.9 mph - N/A   Overcast
9:51 PM 72.0 °F 68.0 °F 87% 30.12 in 10.0 mi SW 4.6 mph - N/A   Overcast
10:51 PM 69.1 °F 66.9 °F 93% 30.13 in 9.0 mi NNW 3.5 mph - N/A   Overcast
11:09 PM 69.8 °F 68.0 °F 94% 30.13 in 9.0 mi NNW 10.4 mph - N/A   Overcast
11:22 PM 68.0 °F 66.2 °F 94% 30.13 in 10.0 mi NNW 9.2 mph - N/A   Overcast
11:40 PM 66.2 °F 66.2 °F 100% 30.13 in 10.0 mi NNW 9.2 mph - N/A   Overcast
11:51 PM 66.9 °F 66.0 °F 97% 30.14 in 10.0 mi North 9.2 mph - N/A   Overcast